When you browse on this site, cookies collect data to enhance your experience and personalize the content and advertising you see.
Visit our Privacy Policy to learn more. By continuing to use the site, you agree to this use of cookies and data.
  • In Austria
  • List of Countries
  • For 7 days
  • Water Temperature
  • Weather Map
  • News
  • Weather Widgets
  • user-avatar
    Login

    Hourly Weather Silistra

    Today, 23 January, Thursday

    Time Temperature Precipitation Wind Pressure Humidity
    00:00 0°C° 0 mm 3 mps 760 mmHg 61%
    01:00 0°C° 0 mm 3 mps 760 mmHg 62%
    02:00 0°C° 0 mm 3 mps 760 mmHg 63%
    03:00 0°C° 0 mm 3 mps 761 mmHg 63%
    04:00 -1°C° 0 mm 3 mps 762 mmHg 64%
    05:00 -1°C° 0 mm 3 mps 762 mmHg 64%
    06:00 -1°C° 0 mm 3 mps 763 mmHg 62%
    07:00 -2°C° 0 mm 4 mps 764 mmHg 61%
    08:00 -2°C° 0 mm 4 mps 765 mmHg 59%
    09:00 -1°C° 0 mm 4 mps 766 mmHg 54%
    10:00 +1°C° 0 mm 5 mps 766 mmHg 49%
    11:00 +3°C° 0 mm 5 mps 767 mmHg 44%
    12:00 +3°C° 0 mm 5 mps 767 mmHg 42%
    13:00 +4°C° 0 mm 6 mps 767 mmHg 41%
    14:00 +5°C° 0 mm 6 mps 767 mmHg 39%
    15:00 +5°C° 0 mm 5 mps 767 mmHg 41%
    16:00 +4°C° 0 mm 4 mps 767 mmHg 44%
    17:00 +3°C° 0 mm 3 mps 767 mmHg 46%
    18:00 +2°C° 0 mm 3 mps 768 mmHg 50%
    19:00 +2°C° 0 mm 2 mps 768 mmHg 53%
    20:00 +1°C° 0 mm 2 mps 769 mmHg 57%
    21:00 +1°C° 0 mm 2 mps 769 mmHg 59%
    22:00 +1°C° 0 mm 2 mps 769 mmHg 61%
    23:00 -1°C° 0 mm 2 mps 769 mmHg 63%

    Tomorrow, 24 January, Friday

    Time Temperature Precipitation Wind Pressure Humidity
    00:00 -1°C° 0 mm 2 mps 769 mmHg 65%
    01:00 -1°C° 0 mm 2 mps 770 mmHg 67%
    02:00 -1°C° 0 mm 2 mps 770 mmHg 69%
    03:00 -2°C° 0 mm 2 mps 769 mmHg 71%
    04:00 -2°C° 0 mm 2 mps 769 mmHg 72%
    05:00 0°C° 0 mm 1 mps 769 mmHg 74%
    06:00 -2°C° 0 mm 2 mps 769 mmHg 74%
    07:00 -2°C° 0 mm 2 mps 769 mmHg 74%
    08:00 -2°C° 0 mm 2 mps 769 mmHg 75%
    09:00 +1°C° 0 mm 2 mps 768 mmHg 66%
    10:00 +2°C° 0 mm 3 mps 768 mmHg 58%
    11:00 +3°C° 0 mm 3 mps 768 mmHg 49%
    12:00 +4°C° 0 mm 3 mps 767 mmHg 46%
    13:00 +5°C° 0 mm 3 mps 767 mmHg 42%
    14:00 +7°C° 0 mm 3 mps 766 mmHg 38%
    15:00 +5°C° 0 mm 3 mps 766 mmHg 41%
    16:00 +5°C° 0 mm 2 mps 766 mmHg 44%
    17:00 +5°C° 0 mm 2 mps 765 mmHg 48%
    18:00 +4°C° 0 mm 2 mps 765 mmHg 50%
    19:00 +2°C° 0 mm 3 mps 765 mmHg 52%
    20:00 +2°C° 0 mm 3 mps 765 mmHg 55%
    21:00 +1°C° 0 mm 3 mps 764 mmHg 57%
    22:00 +1°C° 0 mm 3 mps 764 mmHg 59%
    23:00 +1°C° 0 mm 3 mps 764 mmHg 60%

    Day after tomorrow, 25 January, Saturday

    Time Temperature Precipitation Wind Pressure Humidity
    00:00 0°C° 0 mm 3 mps 763 mmHg 62%
    01:00 0°C° 0 mm 3 mps 763 mmHg 63%
    02:00 0°C° 0 mm 3 mps 763 mmHg 64%
    03:00 0°C° 0 mm 3 mps 762 mmHg 64%
    04:00 -2°C° 0 mm 4 mps 762 mmHg 64%
    05:00 -2°C° 0 mm 4 mps 762 mmHg 64%
    06:00 -2°C° 0 mm 4 mps 762 mmHg 64%
    07:00 -2°C° 0 mm 4 mps 762 mmHg 63%
    08:00 -1°C° 0 mm 3 mps 762 mmHg 63%
    09:00 0°C° 0 mm 4 mps 762 mmHg 56%
    10:00 +3°C° 0 mm 4 mps 762 mmHg 50%
    11:00 +5°C° 0 mm 4 mps 762 mmHg 44%
    12:00 +6°C° 0 mm 4 mps 762 mmHg 42%
    13:00 +7°C° 0 mm 3 mps 761 mmHg 40%
    14:00 +8°C° 0 mm 3 mps 761 mmHg 38%
    15:00 +7°C° 0 mm 2 mps 761 mmHg 41%
    16:00 +6°C° 0 mm 2 mps 761 mmHg 44%
    17:00 +7°C° 0 mm 1 mps 761 mmHg 48%
    18:00 +6°C° 0 mm 1 mps 761 mmHg 50%
    19:00 +5°C° 0 mm 1 mps 761 mmHg 53%
    20:00 +5°C° 0 mm 1 mps 761 mmHg 56%
    21:00 +5°C° 0 mm 1 mps 761 mmHg 58%
    22:00 +4°C° 0 mm 1 mps 761 mmHg 60%
    23:00 +4°C° 0 mm 1 mps 761 mmHg 62%

    26 January, Sunday

    Time Temperature Precipitation Wind Pressure Humidity
    00:00 +4°C° 0 mm 1 mps 761 mmHg 63%
    01:00 +4°C° 0 mm 1 mps 761 mmHg 65%
    02:00 +4°C° 0 mm 1 mps 762 mmHg 66%
    03:00 +3°C° 0 mm 1 mps 762 mmHg 69%
    04:00 +3°C° 0 mm 1 mps 762 mmHg 71%
    05:00 +3°C° 0 mm 1 mps 762 mmHg 73%
    06:00 +2°C° 0 mm 1 mps 762 mmHg 74%
    07:00 +1°C° 0 mm 0 mps 762 mmHg 75%
    08:00 +1°C° 0 mm 0 mps 763 mmHg 75%
    09:00 +3°C° 0 mm 0 mps 763 mmHg 69%
    10:00 +4°C° 0 mm 0 mps 763 mmHg 62%
    11:00 +6°C° 0 mm 0 mps 764 mmHg 55%
    12:00 +8°C° 0 mm 1 mps 763 mmHg 52%
    13:00 +9°C° 0 mm 1 mps 763 mmHg 48%
    14:00 +9°C° 0 mm 2 mps 763 mmHg 45%
    15:00 +8°C° 0 mm 2 mps 763 mmHg 47%
    16:00 +7°C° 0 mm 2 mps 763 mmHg 50%
    17:00 +7°C° 0 mm 2 mps 763 mmHg 53%
    18:00 +6°C° 0 mm 2 mps 764 mmHg 56%
    19:00 +5°C° 0 mm 2 mps 764 mmHg 60%
    20:00 +4°C° 0 mm 3 mps 764 mmHg 64%
    21:00 +3°C° 0 mm 3 mps 764 mmHg 68%
    22:00 +3°C° 0 mm 3 mps 764 mmHg 71%
    23:00 +3°C° 0 mm 3 mps 764 mmHg 74%

    27 January, Monday

    Time Temperature Precipitation Wind Pressure Humidity
    00:00 +3°C° 0 mm 3 mps 764 mmHg 76%
    01:00 +2°C° 0 mm 3 mps 764 mmHg 77%
    02:00 +2°C° 0 mm 3 mps 763 mmHg 78%
    03:00 +2°C° 0 mm 3 mps 763 mmHg 80%
    04:00 +2°C° 0 mm 3 mps 763 mmHg 81%
    05:00 +2°C° 0 mm 3 mps 763 mmHg 83%
    06:00 +2°C° 0 mm 3 mps 763 mmHg 84%
    07:00 +2°C° 0 mm 3 mps 763 mmHg 85%
    08:00 +2°C° 0 mm 3 mps 763 mmHg 86%
    09:00 +4°C° 0 mm 3 mps 763 mmHg 80%
    10:00 +5°C° 0 mm 3 mps 763 mmHg 74%
    11:00 +8°C° 0 mm 3 mps 763 mmHg 68%
    12:00 +9°C° 0 mm 3 mps 762 mmHg 66%
    13:00 +10°C° 0 mm 2 mps 762 mmHg 64%
    14:00 +10°C° 0 mm 2 mps 761 mmHg 61%
    15:00 +10°C° 0 mm 2 mps 761 mmHg 67%
    16:00 +9°C° 0 mm 2 mps 761 mmHg 72%
    17:00 +8°C° 0 mm 2 mps 761 mmHg 78%
    18:00 +8°C° 0 mm 2 mps 761 mmHg 81%
    19:00 +7°C° 0 mm 2 mps 761 mmHg 83%
    20:00 +8°C° 0 mm 1 mps 761 mmHg 86%
    21:00 +6°C° 0 mm 2 mps 761 mmHg 86%
    22:00 +6°C° 0 mm 2 mps 761 mmHg 85%
    23:00 +6°C° 0 mm 2 mps 761 mmHg 84%

    28 January, Tuesday

    Time Temperature Precipitation Wind Pressure Humidity
    00:00 +5°C° 0 mm 2 mps 761 mmHg 84%
    01:00 +5°C° 0 mm 2 mps 761 mmHg 84%
    02:00 +3°C° 0 mm 3 mps 761 mmHg 85%
    03:00 +3°C° 0 mm 3 mps 761 mmHg 86%
    04:00 +2°C° 0 mm 3 mps 761 mmHg 88%
    05:00 +2°C° 0 mm 3 mps 761 mmHg 90%
    06:00 +3°C° 0 mm 2 mps 761 mmHg 90%
    07:00 +2°C° 0 mm 2 mps 761 mmHg 90%
    08:00 +2°C° 0 mm 2 mps 761 mmHg 90%
    09:00 +3°C° 0 mm 3 mps 761 mmHg 82%
    10:00 +4°C° 0 mm 3 mps 761 mmHg 73%
    11:00 +7°C° 0 mm 3 mps 762 mmHg 65%
    12:00 +8°C° 0 mm 3 mps 761 mmHg 61%
    13:00 +9°C° 0 mm 3 mps 761 mmHg 56%
    14:00 +10°C° 0 mm 3 mps 760 mmHg 52%
    15:00 +10°C° 0 mm 2 mps 760 mmHg 54%
    16:00 +9°C° 0 mm 2 mps 760 mmHg 57%
    17:00 +8°C° 0 mm 2 mps 760 mmHg 60%
    18:00 +8°C° 0 mm 2 mps 760 mmHg 62%
    19:00 +7°C° 0 mm 2 mps 760 mmHg 65%
    20:00 +7°C° 0 mm 2 mps 760 mmHg 67%
    21:00 +6°C° 0 mm 2 mps 760 mmHg 69%
    22:00 +6°C° 0 mm 2 mps 760 mmHg 70%
    23:00 +6°C° 0 mm 2 mps 760 mmHg 72%
    Show more